Starlink 31908

operational
NORAD ID: 59901 Int'l Des: 2024-100 Owner: SPXS Country: US Constellation: starlink
LEOCIRCULAR

Über Starlink 31908

Beschreibung wird geladen...

Live-Position

3D-Globus wird geladen...

Nächste Überflüge

Höhenverlauf

Altitude vs Time

uPlot chart will show altitude changes over time

Zweizeiliger Elementsatz

1 59901U 24100S 26095.33671505 .00001928 00000-0 79563-4 0 9997
2 59901 43.0051 327.8634 0000523 257.6611 102.4182 15.27572850105309
Epoch: 5. Apr. 2026 • Age: 10 hours

Aktueller Status

Höhe 486.6 km
Geschwindigkeit 7.63 km/s
Subsatellitenpunkt 43.12°N, 49.79°W
Startdatum 28. Mai 2024
Alter 1.8 years
Typ internet

Technische Details

Klassifizierung Payload
Masse 730.00 kg
Trockenmasse 700.00 kg
Gesamtmasse 730.00 kg
Länge 0.30 m
Durchmesser 4.10 m
Spannweite 29.00 m
Form Box + pan
Hersteller SPXS
Bus-Typ Starlink V2M
Phasenstatus In Orbit
Besitzer/Staat SPXS/US

Große Konstellationen

Loading constellations...